Tracking 19651 objects as of 23-Apr-2019
HD Live streaming from Space Station
objects crossing your sky now

COSMOS 1823 DEB

Track COSMOS 1823 DEB now!
10-day predictions


NORAD ID: 18727
Int'l Code: 1987-020E
Perigee: 1,341.0 km
Apogee: 1,480.1 km
Inclination: 73.4 °
Period: 113.9 minutes
Semi major axis: 7781 km
RCS: 0.1915 m2 (medium)
Launch date: February 20, 1987
Source: Commonwealth of Independent States (former USSR) (CIS)
Launch site: PLESETSK MISSILE AND SPACE COMPLEX (PKMTR)

Note: This is SATELLITE DEBRIS
aabbcc
Your satellite tracking list
Your tracking list is empty




NASA's NSSDC Master Catalog

Two Line Element Set (TLE):
1 18727U 87020E   19112.84827747 +.00000009 +00000-0 +15444-3 0  9993
2 18727 073.3567 128.1542 0089422 166.6690 263.5987 12.64749848446490
Source of the keplerian elements: AFSPC